Year,Month,Day,Hour,Minute,Value (Times are PST for temperature in C)
2015,01,18,00,00,5.90
2015,01,18,00,01,5.90
2015,01,18,00,02,5.90
2015,01,18,00,03,5.90
2015,01,18,00,04,5.90
2015,01,18,00,05,5.80
2015,01,18,00,06,5.80
2015,01,18,00,07,5.80
2015,01,18,00,08,5.80
2015,01,18,00,09,5.80
2015,01,18,00,10,5.80
2015,01,18,00,11,5.80
2015,01,18,00,12,5.80
2015,01,18,00,13,5.80
2015,01,18,00,14,5.80
2015,01,18,00,15,5.80
2015,01,18,00,16,5.80
2015,01,18,00,17,5.80
2015,01,18,00,18,5.80
2015,01,18,00,19,5.80
2015,01,18,00,20,5.80
2015,01,18,00,21,5.80
2015,01,18,00,22,5.80
2015,01,18,00,23,5.80
2015,01,18,00,24,5.80
2015,01,18,00,25,5.80
2015,01,18,00,26,5.80
2015,01,18,00,27,5.80
2015,01,18,00,28,5.80
2015,01,18,00,29,5.80
2015,01,18,00,30,5.80
2015,01,18,00,31,5.80
2015,01,18,00,32,5.80
2015,01,18,00,33,5.80
2015,01,18,00,34,5.80
2015,01,18,00,35,5.80
2015,01,18,00,36,5.80
2015,01,18,00,37,5.80
2015,01,18,00,38,5.80
2015,01,18,00,39,5.80
2015,01,18,00,40,5.80
2015,01,18,00,41,5.80
2015,01,18,00,42,5.80
2015,01,18,00,43,5.90
2015,01,18,00,44,5.90
2015,01,18,00,45,5.90
2015,01,18,00,46,5.90
2015,01,18,00,47,5.90
2015,01,18,00,48,5.90
2015,01,18,00,49,5.90
2015,01,18,00,50,5.90
2015,01,18,00,51,5.90
2015,01,18,00,52,5.90
2015,01,18,00,53,5.90
2015,01,18,00,54,5.90
2015,01,18,00,55,5.90
2015,01,18,00,56,5.90
2015,01,18,00,57,5.90
2015,01,18,00,58,5.90
2015,01,18,00,59,5.90
2015,01,18,01,00,5.90
2015,01,18,01,01,5.90
2015,01,18,01,02,5.90
2015,01,18,01,03,5.90
2015,01,18,01,04,5.90
2015,01,18,01,05,5.90
2015,01,18,01,06,5.90
2015,01,18,01,07,5.90
2015,01,18,01,08,5.90
2015,01,18,01,09,6.00
2015,01,18,01,10,6.00
2015,01,18,01,11,6.10
2015,01,18,01,12,6.10
2015,01,18,01,13,6.10
2015,01,18,01,14,6.10
2015,01,18,01,15,6.10
2015,01,18,01,16,6.10
2015,01,18,01,17,6.10
2015,01,18,01,18,6.10
2015,01,18,01,19,6.20
2015,01,18,01,20,6.30
2015,01,18,01,21,6.30
2015,01,18,01,22,6.30
2015,01,18,01,23,6.20
2015,01,18,01,24,6.20
2015,01,18,01,25,6.20
2015,01,18,01,26,6.20
2015,01,18,01,27,6.30
2015,01,18,01,28,6.60
2015,01,18,01,29,6.70
2015,01,18,01,30,6.70
2015,01,18,01,31,6.90
2015,01,18,01,32,7.30
2015,01,18,01,33,7.90
2015,01,18,01,34,8.50
2015,01,18,01,35,9.00
2015,01,18,01,36,9.40
2015,01,18,01,37,9.60
2015,01,18,01,38,9.70
2015,01,18,01,39,9.70
2015,01,18,01,40,9.60
2015,01,18,01,41,9.40
2015,01,18,01,42,9.40
2015,01,18,01,43,9.40
2015,01,18,01,44,9.50
2015,01,18,01,45,9.70
2015,01,18,01,46,9.90
2015,01,18,01,47,10.10
2015,01,18,01,48,10.20
2015,01,18,01,49,10.30
2015,01,18,01,50,10.50
2015,01,18,01,51,10.60
2015,01,18,01,52,10.70
2015,01,18,01,53,10.70
2015,01,18,01,54,10.80
2015,01,18,01,55,10.90
2015,01,18,01,56,10.90
2015,01,18,01,57,10.90
2015,01,18,01,58,10.90
2015,01,18,01,59,10.90
2015,01,18,02,00,10.90
2015,01,18,02,01,10.90
2015,01,18,02,02,10.90
2015,01,18,02,03,11.10
2015,01,18,02,04,11.10
2015,01,18,02,05,11.20
2015,01,18,02,06,11.20
2015,01,18,02,07,11.20
2015,01,18,02,08,11.20
2015,01,18,02,09,11.20
2015,01,18,02,10,11.20
2015,01,18,02,11,11.20
2015,01,18,02,12,11.20
2015,01,18,02,13,11.20
2015,01,18,02,14,11.20
2015,01,18,02,15,11.20
2015,01,18,02,16,11.20
2015,01,18,02,17,11.10
2015,01,18,02,18,11.10
2015,01,18,02,19,11.10
2015,01,18,02,20,11.10
2015,01,18,02,21,11.10
2015,01,18,02,22,11.10
2015,01,18,02,23,11.10
2015,01,18,02,24,11.10
2015,01,18,02,25,11.00
2015,01,18,02,26,11.10
2015,01,18,02,27,11.10
2015,01,18,02,28,11.00
2015,01,18,02,29,10.90
2015,01,18,02,30,10.90
2015,01,18,02,31,10.90
2015,01,18,02,32,11.00
2015,01,18,02,33,11.10
2015,01,18,02,34,11.10
2015,01,18,02,35,11.10
2015,01,18,02,36,11.20
2015,01,18,02,37,11.20
2015,01,18,02,38,11.20
2015,01,18,02,39,11.10
2015,01,18,02,40,11.10
2015,01,18,02,41,11.10
2015,01,18,02,42,11.10
2015,01,18,02,43,11.10
2015,01,18,02,44,11.10
2015,01,18,02,45,11.10
2015,01,18,02,46,11.10
2015,01,18,02,47,11.10
2015,01,18,02,48,11.10
2015,01,18,02,49,11.20
2015,01,18,02,50,11.20
2015,01,18,02,51,11.20
2015,01,18,02,52,11.20
2015,01,18,02,53,11.20
2015,01,18,02,54,11.20
2015,01,18,02,55,11.20
2015,01,18,02,56,11.20
2015,01,18,02,57,11.20
2015,01,18,02,58,11.20
2015,01,18,02,59,11.20
2015,01,18,03,00,11.20
2015,01,18,03,01,11.10
2015,01,18,03,02,11.00
2015,01,18,03,06,10.80
2015,01,18,03,07,10.70
2015,01,18,03,08,10.60
2015,01,18,03,09,10.50
2015,01,18,03,10,10.50
2015,01,18,03,11,10.40
2015,01,18,03,12,10.40
2015,01,18,03,13,10.50
2015,01,18,03,14,10.50
2015,01,18,03,15,10.50
2015,01,18,03,16,10.50
2015,01,18,03,17,10.50
2015,01,18,03,18,10.50
2015,01,18,03,19,10.60
2015,01,18,03,20,10.60
2015,01,18,03,21,10.60
2015,01,18,03,22,10.60
2015,01,18,03,23,10.60
2015,01,18,03,24,10.60
2015,01,18,03,25,10.60
2015,01,18,03,26,10.60
2015,01,18,03,27,10.60
2015,01,18,03,28,10.60
2015,01,18,03,29,10.60
2015,01,18,03,30,10.60
2015,01,18,03,31,10.60
2015,01,18,03,32,10.70
2015,01,18,03,33,10.70
2015,01,18,03,34,10.70
2015,01,18,03,35,10.70
2015,01,18,03,36,10.70
2015,01,18,03,37,10.80
2015,01,18,03,38,10.80
2015,01,18,03,39,10.70
2015,01,18,03,40,10.70
2015,01,18,03,41,10.70
2015,01,18,03,42,10.70
2015,01,18,03,43,10.70
2015,01,18,03,44,10.60
2015,01,18,03,45,10.60
2015,01,18,03,46,10.60
2015,01,18,03,47,10.60
2015,01,18,03,48,10.70
2015,01,18,03,49,10.70
2015,01,18,03,50,10.70
2015,01,18,03,51,10.70
2015,01,18,03,52,10.70
2015,01,18,03,53,10.70
2015,01,18,03,54,10.70
2015,01,18,03,55,10.80
2015,01,18,03,56,10.80
2015,01,18,03,57,10.80
2015,01,18,03,58,10.80
2015,01,18,03,59,10.80
2015,01,18,04,00,10.80
2015,01,18,04,01,10.70
2015,01,18,04,02,10.70
2015,01,18,04,03,10.70
2015,01,18,04,04,10.60
2015,01,18,04,05,10.60
2015,01,18,04,06,10.60
2015,01,18,04,07,10.60
2015,01,18,04,08,10.60
2015,01,18,04,09,10.50
2015,01,18,04,10,10.50
2015,01,18,04,11,10.40
2015,01,18,04,12,10.40
2015,01,18,04,13,10.40
2015,01,18,04,14,10.40
2015,01,18,04,15,10.30
2015,01,18,04,16,10.30
2015,01,18,04,17,10.20
2015,01,18,04,18,10.20
2015,01,18,04,19,10.10
2015,01,18,04,20,10.00
2015,01,18,04,21,9.90
2015,01,18,04,22,9.90
2015,01,18,04,23,9.80
2015,01,18,04,24,9.80
2015,01,18,04,25,9.70
2015,01,18,04,26,9.70
2015,01,18,04,27,9.60
2015,01,18,04,28,9.60
2015,01,18,04,29,9.50
2015,01,18,04,30,9.50
2015,01,18,04,31,9.40
2015,01,18,04,32,9.40
2015,01,18,04,33,9.30
2015,01,18,04,34,9.30
2015,01,18,04,35,9.30
2015,01,18,04,36,9.30
2015,01,18,04,37,9.20
2015,01,18,04,38,9.20
2015,01,18,04,39,9.20
2015,01,18,04,40,9.20
2015,01,18,04,41,9.20
2015,01,18,04,42,9.10
2015,01,18,04,43,9.10
2015,01,18,04,44,9.10
2015,01,18,04,45,9.10
2015,01,18,04,46,9.00
2015,01,18,04,47,9.00
2015,01,18,04,48,9.00
2015,01,18,04,49,8.90
2015,01,18,04,50,8.90
2015,01,18,04,51,8.90
2015,01,18,04,52,8.90
2015,01,18,04,53,8.90
2015,01,18,04,54,8.90
2015,01,18,04,55,8.90
2015,01,18,04,56,8.90
2015,01,18,04,57,8.90
2015,01,18,04,58,8.90
2015,01,18,04,59,8.90
2015,01,18,05,00,8.90
2015,01,18,05,01,8.90
2015,01,18,05,02,8.90
2015,01,18,05,03,8.90
2015,01,18,05,04,8.90
2015,01,18,05,05,8.90
2015,01,18,05,06,8.90
2015,01,18,05,07,8.90
2015,01,18,05,08,8.90
2015,01,18,05,09,8.90
2015,01,18,05,10,8.90
2015,01,18,05,11,8.90
2015,01,18,05,12,8.90
2015,01,18,05,13,8.90
2015,01,18,05,14,8.90
2015,01,18,05,15,8.90
2015,01,18,05,16,8.90
2015,01,18,05,17,8.90
2015,01,18,05,18,8.90
2015,01,18,05,19,9.00
2015,01,18,05,20,9.00
2015,01,18,05,21,9.10
2015,01,18,05,22,9.10
2015,01,18,05,23,9.20
2015,01,18,05,24,9.20
2015,01,18,05,25,9.20
2015,01,18,05,26,9.30
2015,01,18,05,27,9.30
2015,01,18,05,28,9.30
2015,01,18,05,29,9.30
2015,01,18,05,30,9.30
2015,01,18,05,31,9.40
2015,01,18,05,32,9.40
2015,01,18,05,33,9.40
2015,01,18,05,34,9.40
2015,01,18,05,35,9.50
2015,01,18,05,36,9.50
2015,01,18,05,37,9.60
2015,01,18,05,38,9.60
2015,01,18,05,39,9.70
2015,01,18,05,40,9.70
2015,01,18,05,41,9.70
2015,01,18,05,42,9.70
2015,01,18,05,43,9.70
2015,01,18,05,44,9.70
2015,01,18,05,45,9.70
2015,01,18,05,46,9.70
2015,01,18,05,47,9.70
2015,01,18,05,48,9.70
2015,01,18,05,49,9.70
2015,01,18,05,50,9.70
2015,01,18,05,51,9.70
2015,01,18,05,52,9.70
2015,01,18,05,53,9.70
2015,01,18,05,54,9.70
2015,01,18,05,55,9.80
2015,01,18,05,56,9.80
2015,01,18,05,57,9.80
2015,01,18,05,58,9.80
2015,01,18,05,59,9.70
2015,01,18,06,00,9.80
2015,01,18,06,01,9.80
2015,01,18,06,02,9.80
2015,01,18,06,03,9.80
2015,01,18,06,04,9.80
2015,01,18,06,05,9.80
2015,01,18,06,06,9.80
2015,01,18,06,07,9.80
2015,01,18,06,08,9.80
2015,01,18,06,09,9.80
2015,01,18,06,10,9.70
2015,01,18,06,11,9.60
2015,01,18,06,12,9.60
2015,01,18,06,13,9.60
2015,01,18,06,14,9.60
2015,01,18,06,15,9.50
2015,01,18,06,16,9.50
2015,01,18,06,17,9.50
2015,01,18,06,18,9.40
2015,01,18,06,19,9.40
2015,01,18,06,20,9.40
2015,01,18,06,21,9.50
2015,01,18,06,22,9.50
2015,01,18,06,23,9.50
2015,01,18,06,24,9.50
2015,01,18,06,25,9.50
2015,01,18,06,26,9.40
2015,01,18,06,27,9.40
2015,01,18,06,28,9.40
2015,01,18,06,29,9.50
2015,01,18,06,30,9.50
2015,01,18,06,31,9.50
2015,01,18,06,32,9.40
2015,01,18,06,33,9.40
2015,01,18,06,34,9.40
2015,01,18,06,35,9.40
2015,01,18,06,36,9.30
2015,01,18,06,37,9.30
2015,01,18,06,38,9.30
2015,01,18,06,39,9.30
2015,01,18,06,40,9.30
2015,01,18,06,41,9.30
2015,01,18,06,42,9.30
2015,01,18,06,43,9.30
2015,01,18,06,44,9.30
2015,01,18,06,45,9.30
2015,01,18,06,46,9.30
2015,01,18,06,47,9.30
2015,01,18,06,48,9.30
2015,01,18,06,49,9.30
2015,01,18,06,50,9.30
2015,01,18,06,51,9.30
2015,01,18,06,52,9.40
2015,01,18,06,53,9.40
2015,01,18,06,54,9.40
2015,01,18,06,55,9.40
2015,01,18,06,56,9.40
2015,01,18,06,57,9.40
2015,01,18,06,58,9.40
2015,01,18,06,59,9.50
2015,01,18,07,00,9.50
2015,01,18,07,01,9.50
2015,01,18,07,02,9.40
2015,01,18,07,03,9.40
2015,01,18,07,04,9.40
2015,01,18,07,05,9.50
2015,01,18,07,06,9.50
2015,01,18,07,07,9.50
2015,01,18,07,08,9.60
2015,01,18,07,09,9.60
2015,01,18,07,10,9.60
2015,01,18,07,11,9.60
2015,01,18,07,12,9.60
2015,01,18,07,13,9.70
2015,01,18,07,14,9.70
2015,01,18,07,15,9.70
2015,01,18,07,16,9.80
2015,01,18,07,17,9.80
2015,01,18,07,18,9.70
2015,01,18,07,19,9.70
2015,01,18,07,20,9.70
2015,01,18,07,21,9.80
2015,01,18,07,22,9.80
2015,01,18,07,23,9.80
2015,01,18,07,24,9.80
2015,01,18,07,25,9.80
2015,01,18,07,26,9.90
2015,01,18,07,27,9.90
2015,01,18,07,28,9.90
2015,01,18,07,29,9.90
2015,01,18,07,30,9.90
2015,01,18,07,31,9.80
2015,01,18,07,32,9.80
2015,01,18,07,33,9.80
2015,01,18,07,34,9.70
2015,01,18,07,35,9.70
2015,01,18,07,36,9.60
2015,01,18,07,37,9.60
2015,01,18,07,38,9.60
2015,01,18,07,39,9.60
2015,01,18,07,40,9.60
2015,01,18,07,41,9.60
2015,01,18,07,42,9.60
2015,01,18,07,43,9.60
2015,01,18,07,44,9.60
2015,01,18,07,45,9.60
2015,01,18,07,46,9.50
2015,01,18,07,47,9.50
2015,01,18,07,48,9.50
2015,01,18,07,49,9.60
2015,01,18,07,50,9.60
2015,01,18,07,51,9.60
2015,01,18,07,52,9.60
2015,01,18,07,53,9.60
2015,01,18,07,54,9.50
2015,01,18,07,55,9.40
2015,01,18,07,56,9.40
2015,01,18,07,57,9.40
2015,01,18,07,58,9.30
2015,01,18,07,59,9.30
2015,01,18,08,00,9.30
2015,01,18,08,01,9.30
2015,01,18,08,02,9.30
2015,01,18,08,03,9.30
2015,01,18,08,04,9.50
2015,01,18,08,05,9.60
2015,01,18,08,06,9.50
2015,01,18,08,07,9.50
2015,01,18,08,08,9.50
2015,01,18,08,09,9.60
2015,01,18,08,10,9.70
2015,01,18,08,11,9.60
2015,01,18,08,12,9.60
2015,01,18,08,13,9.60
2015,01,18,08,14,9.70
2015,01,18,08,15,9.80
2015,01,18,08,16,9.80
2015,01,18,08,17,9.80
2015,01,18,08,18,9.80
2015,01,18,08,19,9.80
2015,01,18,08,20,9.90
2015,01,18,08,21,9.90
2015,01,18,08,22,9.80
2015,01,18,08,23,9.80
2015,01,18,08,24,9.80
2015,01,18,08,25,9.90
2015,01,18,08,26,9.90
2015,01,18,08,27,9.90
2015,01,18,08,28,9.90
2015,01,18,08,29,9.90
2015,01,18,08,30,9.90
2015,01,18,08,31,9.90
2015,01,18,08,32,9.90
2015,01,18,08,33,9.80
2015,01,18,08,34,9.80
2015,01,18,08,35,9.90
2015,01,18,08,36,10.00
2015,01,18,08,37,10.00
2015,01,18,08,38,10.00
2015,01,18,08,39,9.90
2015,01,18,08,40,9.90
2015,01,18,08,41,9.90
2015,01,18,08,42,9.90
2015,01,18,08,43,9.90
2015,01,18,08,44,9.90
2015,01,18,08,45,9.90
2015,01,18,08,46,9.90
2015,01,18,08,47,9.90
2015,01,18,08,48,9.90
2015,01,18,08,49,9.90
2015,01,18,08,50,9.80
2015,01,18,08,51,9.90
2015,01,18,08,52,9.90
2015,01,18,08,53,9.90
2015,01,18,08,54,9.90
2015,01,18,08,55,9.90
2015,01,18,08,56,9.90
2015,01,18,08,57,10.00
2015,01,18,08,58,10.00
2015,01,18,08,59,10.10
2015,01,18,09,00,10.00
2015,01,18,09,01,10.00
2015,01,18,09,02,10.00
2015,01,18,09,03,10.00
2015,01,18,09,04,10.00
2015,01,18,09,05,10.00
2015,01,18,09,06,9.90
2015,01,18,09,07,9.90
2015,01,18,09,08,9.90
2015,01,18,09,09,9.90
2015,01,18,09,10,9.90
2015,01,18,09,11,9.90
2015,01,18,09,12,9.90
2015,01,18,09,13,9.80
2015,01,18,09,14,9.80
2015,01,18,09,15,9.80
2015,01,18,09,16,9.80
2015,01,18,09,17,9.80
2015,01,18,09,18,9.80
2015,01,18,09,19,9.80
2015,01,18,09,20,9.90
2015,01,18,09,21,9.80
2015,01,18,09,22,9.90
2015,01,18,09,23,9.90
2015,01,18,09,24,9.90
2015,01,18,09,25,9.90
2015,01,18,09,26,10.00
2015,01,18,09,27,10.00
2015,01,18,09,28,10.00
2015,01,18,09,29,10.00
2015,01,18,09,30,10.00
2015,01,18,09,31,10.10
2015,01,18,09,32,10.10
2015,01,18,09,33,10.20
2015,01,18,09,34,10.20
2015,01,18,09,35,10.20
2015,01,18,09,36,10.30
2015,01,18,09,37,10.30
2015,01,18,09,38,10.30
2015,01,18,09,39,10.30
2015,01,18,09,40,10.40
2015,01,18,09,41,10.40
2015,01,18,09,42,10.50
2015,01,18,09,43,10.50
2015,01,18,09,44,10.60
2015,01,18,09,45,10.60
2015,01,18,09,46,10.60
2015,01,18,09,47,10.60
2015,01,18,09,48,10.60
2015,01,18,09,49,10.60
2015,01,18,09,50,10.70
2015,01,18,09,51,10.70
2015,01,18,09,52,10.70
2015,01,18,09,53,10.70
2015,01,18,09,54,10.70
2015,01,18,09,55,10.70
2015,01,18,09,56,10.70
2015,01,18,09,57,10.70
2015,01,18,09,58,10.70
2015,01,18,09,59,10.60
2015,01,18,10,00,10.60
2015,01,18,10,01,10.60
2015,01,18,10,02,10.60
2015,01,18,10,03,10.60
2015,01,18,10,04,10.60
2015,01,18,10,05,10.60
2015,01,18,10,06,10.60
2015,01,18,10,07,10.60
2015,01,18,10,08,10.60
2015,01,18,10,09,10.60
2015,01,18,10,10,10.60
2015,01,18,10,11,10.60
2015,01,18,10,12,10.60
2015,01,18,10,13,10.60
2015,01,18,10,14,10.60
2015,01,18,10,15,10.70
2015,01,18,10,16,10.70
2015,01,18,10,17,10.70
2015,01,18,10,18,10.70
2015,01,18,10,19,10.70
2015,01,18,10,20,10.70
2015,01,18,10,21,10.60
2015,01,18,10,22,10.60
2015,01,18,10,23,10.50
2015,01,18,10,24,10.40
2015,01,18,10,25,10.30
2015,01,18,10,26,10.20
2015,01,18,10,27,10.00
2015,01,18,10,28,9.90
2015,01,18,10,29,9.80
2015,01,18,10,30,9.60
2015,01,18,10,31,9.60
2015,01,18,10,32,9.40
2015,01,18,10,33,9.30
2015,01,18,10,34,9.20
2015,01,18,10,35,9.10
2015,01,18,10,36,9.00
2015,01,18,10,37,9.00
2015,01,18,10,38,8.90
2015,01,18,10,39,8.90
2015,01,18,10,40,8.90
2015,01,18,10,41,8.80
2015,01,18,10,42,8.70
2015,01,18,10,43,8.60
2015,01,18,10,44,8.60
2015,01,18,10,45,8.60
2015,01,18,10,46,8.50
2015,01,18,10,47,8.50
2015,01,18,10,48,8.40
2015,01,18,10,49,8.40
2015,01,18,10,50,8.30
2015,01,18,10,51,8.30
2015,01,18,10,52,8.30
2015,01,18,10,53,8.30
2015,01,18,10,54,8.30
2015,01,18,10,55,8.30
2015,01,18,10,56,8.30
2015,01,18,10,57,8.40
2015,01,18,10,58,8.40
2015,01,18,10,59,8.40
2015,01,18,11,00,8.50
2015,01,18,11,01,8.50
2015,01,18,11,02,8.60
2015,01,18,11,03,8.60
2015,01,18,11,04,8.70
2015,01,18,11,05,8.70
2015,01,18,11,06,8.80
2015,01,18,11,07,8.80
2015,01,18,11,08,8.80
2015,01,18,11,09,8.90
2015,01,18,11,10,8.90
2015,01,18,11,11,8.90
2015,01,18,11,12,9.00
2015,01,18,11,13,9.00
2015,01,18,11,14,9.00
2015,01,18,11,15,9.10
2015,01,18,11,16,9.10
2015,01,18,11,17,9.10
2015,01,18,11,18,9.10
2015,01,18,11,19,9.20
2015,01,18,11,20,9.20
2015,01,18,11,21,9.20
2015,01,18,11,22,9.20
2015,01,18,11,23,9.20
2015,01,18,11,24,9.20
2015,01,18,11,25,9.20
2015,01,18,11,26,9.10
2015,01,18,11,27,9.10
2015,01,18,11,28,9.20
2015,01,18,11,29,9.20
2015,01,18,11,30,9.20
2015,01,18,11,31,9.20
2015,01,18,11,32,9.20
2015,01,18,11,33,9.20
2015,01,18,11,34,9.10
2015,01,18,11,35,9.10
2015,01,18,11,36,9.10
2015,01,18,11,37,9.10
2015,01,18,11,38,9.10
2015,01,18,11,39,9.10
2015,01,18,11,40,9.10
2015,01,18,11,41,9.00
2015,01,18,11,42,9.00
2015,01,18,11,43,8.90
2015,01,18,11,44,8.90
2015,01,18,11,45,8.90
2015,01,18,11,46,8.90
2015,01,18,11,47,8.90
2015,01,18,11,48,8.80
2015,01,18,11,49,8.80
2015,01,18,11,50,8.80
2015,01,18,11,51,8.70
2015,01,18,11,52,8.70
2015,01,18,11,53,8.70
2015,01,18,11,54,8.70
2015,01,18,11,55,8.70
2015,01,18,11,56,8.70
2015,01,18,11,57,8.70
2015,01,18,11,58,8.70
2015,01,18,11,59,8.60
2015,01,18,12,00,8.60
2015,01,18,12,01,8.60
2015,01,18,12,02,8.60
2015,01,18,12,03,8.60
2015,01,18,12,04,8.60
2015,01,18,12,05,8.50
2015,01,18,12,06,8.50
2015,01,18,12,07,8.50
2015,01,18,12,08,8.50
2015,01,18,12,09,8.60
2015,01,18,12,10,8.60
2015,01,18,12,11,8.60
2015,01,18,12,12,8.70
2015,01,18,12,13,8.70
2015,01,18,12,14,8.80
2015,01,18,12,15,8.80
2015,01,18,12,16,8.80
2015,01,18,12,17,8.80
2015,01,18,12,18,8.80
2015,01,18,12,19,8.70
2015,01,18,12,20,8.80
2015,01,18,12,21,8.80
2015,01,18,12,22,8.80
2015,01,18,12,23,8.80
2015,01,18,12,24,8.80
2015,01,18,12,25,8.80
2015,01,18,12,26,8.80
2015,01,18,12,27,8.80
2015,01,18,12,28,8.80
2015,01,18,12,29,8.80
2015,01,18,12,30,8.80
2015,01,18,12,31,8.80
2015,01,18,12,32,8.80
2015,01,18,12,33,8.80
2015,01,18,12,34,8.80
2015,01,18,12,35,8.70
2015,01,18,12,36,8.70
2015,01,18,12,37,8.70
2015,01,18,12,38,8.70
2015,01,18,12,39,8.70
2015,01,18,12,40,8.70
2015,01,18,12,41,8.80
2015,01,18,12,42,8.80
2015,01,18,12,43,8.80
2015,01,18,12,44,8.80
2015,01,18,12,45,8.80
2015,01,18,12,46,8.90
2015,01,18,12,47,8.90
2015,01,18,12,48,8.90
2015,01,18,12,49,9.00
2015,01,18,12,50,9.00
2015,01,18,12,51,9.10
2015,01,18,12,52,9.10
2015,01,18,12,53,9.20
2015,01,18,12,54,9.30
2015,01,18,12,55,9.40
2015,01,18,12,56,9.50
2015,01,18,12,57,9.50
2015,01,18,12,58,9.60
2015,01,18,12,59,9.70
2015,01,18,13,00,9.70
2015,01,18,13,01,9.80
2015,01,18,13,02,9.80
2015,01,18,13,03,9.80
2015,01,18,13,04,9.80
2015,01,18,13,05,9.80
2015,01,18,13,06,9.80
2015,01,18,13,07,9.80
2015,01,18,13,08,9.80
2015,01,18,13,09,9.80
2015,01,18,13,10,9.80
2015,01,18,13,11,9.80
2015,01,18,13,12,9.80
2015,01,18,13,13,9.80
2015,01,18,13,14,9.80
2015,01,18,13,15,9.80
2015,01,18,13,16,9.80
2015,01,18,13,17,9.80
2015,01,18,13,18,9.80
2015,01,18,13,19,9.80
2015,01,18,13,20,9.90
2015,01,18,13,21,10.00
2015,01,18,13,22,10.00
2015,01,18,13,23,10.00
2015,01,18,13,24,10.00
2015,01,18,13,25,9.90
2015,01,18,13,26,9.80
2015,01,18,13,27,9.80
2015,01,18,13,28,9.60
2015,01,18,13,29,9.50
2015,01,18,13,30,9.40
2015,01,18,13,31,9.20
2015,01,18,13,32,9.20
2015,01,18,13,33,9.10
2015,01,18,13,34,9.10
2015,01,18,13,35,9.00
2015,01,18,13,36,9.00
2015,01,18,13,37,8.90
2015,01,18,13,38,8.90
2015,01,18,13,39,8.90
2015,01,18,13,40,8.90
2015,01,18,13,41,8.90
2015,01,18,13,42,8.90
2015,01,18,13,43,9.00
2015,01,18,13,44,9.00
2015,01,18,13,45,9.10
2015,01,18,13,46,9.10
2015,01,18,13,47,9.10
2015,01,18,13,48,9.10
2015,01,18,13,49,9.20
2015,01,18,13,50,9.20
2015,01,18,13,51,9.20
2015,01,18,13,52,9.20
2015,01,18,13,53,9.20
2015,01,18,13,54,9.20
2015,01,18,13,55,9.20
2015,01,18,13,56,9.20
2015,01,18,13,57,9.30
2015,01,18,13,58,9.30
2015,01,18,13,59,9.50
2015,01,18,14,00,9.60
2015,01,18,14,01,9.70
2015,01,18,14,02,9.70
2015,01,18,14,03,9.80
2015,01,18,14,04,9.80
2015,01,18,14,05,9.90
2015,01,18,14,06,10.00
2015,01,18,14,07,10.10
2015,01,18,14,08,10.10
2015,01,18,14,09,10.20
2015,01,18,14,10,10.20
2015,01,18,14,11,10.20
2015,01,18,14,12,10.20
2015,01,18,14,13,10.20
2015,01,18,14,14,10.20
2015,01,18,14,15,10.30
2015,01,18,14,16,10.30
2015,01,18,14,17,10.30
2015,01,18,14,18,10.30
2015,01,18,14,19,10.40
2015,01,18,14,20,10.40
2015,01,18,14,21,10.40
2015,01,18,14,22,10.40
2015,01,18,14,23,10.40
2015,01,18,14,24,10.40
2015,01,18,14,25,10.40
2015,01,18,14,26,10.30
2015,01,18,14,27,10.30
2015,01,18,14,28,10.20
2015,01,18,14,29,10.20
2015,01,18,14,30,10.20
2015,01,18,14,31,10.20
2015,01,18,14,32,10.30
2015,01,18,14,33,10.30
2015,01,18,14,34,10.30
2015,01,18,14,35,10.40
2015,01,18,14,36,10.40
2015,01,18,14,37,10.30
2015,01,18,14,38,10.30
2015,01,18,14,39,10.30
2015,01,18,14,40,10.30
2015,01,18,14,41,10.30
2015,01,18,14,42,10.20
2015,01,18,14,43,10.20
2015,01,18,14,44,10.20
2015,01,18,14,45,10.30
2015,01,18,14,46,10.30
2015,01,18,14,47,10.30
2015,01,18,14,48,10.40
2015,01,18,14,49,10.40
2015,01,18,14,50,10.50
2015,01,18,14,51,10.50
2015,01,18,14,52,10.60
2015,01,18,14,53,10.60
2015,01,18,14,54,10.70
2015,01,18,14,55,10.70
2015,01,18,14,56,10.80
2015,01,18,14,57,10.80
2015,01,18,14,58,10.80
2015,01,18,14,59,10.90
2015,01,18,15,00,10.90
2015,01,18,15,01,10.90
2015,01,18,15,02,10.90
2015,01,18,15,03,10.80
2015,01,18,15,04,10.80
2015,01,18,15,05,10.80
2015,01,18,15,06,10.70
2015,01,18,15,07,10.70
2015,01,18,15,08,10.70
2015,01,18,15,09,10.70
2015,01,18,15,10,10.60
2015,01,18,15,11,10.50
2015,01,18,15,12,10.50
2015,01,18,15,13,10.40
2015,01,18,15,14,10.40
2015,01,18,15,15,10.40
2015,01,18,15,16,10.30
2015,01,18,15,17,10.30
2015,01,18,15,18,10.30
2015,01,18,15,19,10.20
2015,01,18,15,20,10.20
2015,01,18,15,21,10.10
2015,01,18,15,22,10.10
2015,01,18,15,23,10.10
2015,01,18,15,24,10.00
2015,01,18,15,25,10.00
2015,01,18,15,26,9.90
2015,01,18,15,27,9.90
2015,01,18,15,28,9.80
2015,01,18,15,29,9.80
2015,01,18,15,30,9.70
2015,01,18,15,31,9.70
2015,01,18,15,32,9.60
2015,01,18,15,33,9.60
2015,01,18,15,34,9.60
2015,01,18,15,35,9.60
2015,01,18,15,36,9.50
2015,01,18,15,37,9.50
2015,01,18,15,38,9.50
2015,01,18,15,39,9.40
2015,01,18,15,40,9.30
2015,01,18,15,41,9.30
2015,01,18,15,42,9.20
2015,01,18,15,43,9.10
2015,01,18,15,44,9.00
2015,01,18,15,45,8.90
2015,01,18,15,46,8.80
2015,01,18,15,47,8.70
2015,01,18,15,48,8.70
2015,01,18,15,49,8.60
2015,01,18,15,50,8.60
2015,01,18,15,51,8.50
2015,01,18,15,52,8.50
2015,01,18,15,53,8.40
2015,01,18,15,54,8.40
2015,01,18,15,55,8.40
2015,01,18,15,56,8.30
2015,01,18,15,57,8.30
2015,01,18,15,58,8.30
2015,01,18,15,59,8.30
2015,01,18,16,00,8.30
2015,01,18,16,01,8.30
2015,01,18,16,02,8.20
2015,01,18,16,03,8.20
2015,01,18,16,04,8.20
2015,01,18,16,05,8.20
2015,01,18,16,06,8.30
2015,01,18,16,07,8.30
2015,01,18,16,08,8.40
2015,01,18,16,09,8.40
2015,01,18,16,10,8.30
2015,01,18,16,11,8.30
2015,01,18,16,12,8.30
2015,01,18,16,13,8.20
2015,01,18,16,14,8.20
2015,01,18,16,15,8.20
2015,01,18,16,16,8.20
2015,01,18,16,17,8.20
2015,01,18,16,18,8.20
2015,01,18,16,19,8.20
2015,01,18,16,20,8.10
2015,01,18,16,21,8.10
2015,01,18,16,22,8.10
2015,01,18,16,23,8.10
2015,01,18,16,24,8.10
2015,01,18,16,25,8.10
2015,01,18,16,26,8.00
2015,01,18,16,27,8.00
2015,01,18,16,28,8.00
2015,01,18,16,29,7.90
2015,01,18,16,30,7.90
2015,01,18,16,31,7.90
2015,01,18,16,32,7.90
2015,01,18,16,33,7.90
2015,01,18,16,34,7.90
2015,01,18,16,35,7.90
2015,01,18,16,36,7.90
2015,01,18,16,37,7.90
2015,01,18,16,38,7.90
2015,01,18,16,39,7.90
2015,01,18,16,40,7.90
2015,01,18,16,41,7.90
2015,01,18,16,42,7.90
2015,01,18,16,43,7.90
2015,01,18,16,44,8.00
2015,01,18,16,45,8.00
2015,01,18,16,46,8.00
2015,01,18,16,47,8.00
2015,01,18,16,48,8.00
2015,01,18,16,49,8.00
2015,01,18,16,50,7.90
2015,01,18,16,51,7.90
2015,01,18,16,52,7.90
2015,01,18,16,53,8.00
2015,01,18,16,54,8.00
2015,01,18,16,55,8.00
2015,01,18,16,56,8.10
2015,01,18,16,57,8.10
2015,01,18,16,58,8.10
2015,01,18,16,59,8.10
2015,01,18,17,00,8.20
2015,01,18,17,01,8.20
2015,01,18,17,02,8.20
2015,01,18,17,03,8.20
2015,01,18,17,04,8.20
2015,01,18,17,05,8.20
2015,01,18,17,06,8.10
2015,01,18,17,07,8.10
2015,01,18,17,08,8.10
2015,01,18,17,09,8.10
2015,01,18,17,10,8.10
2015,01,18,17,11,8.20
2015,01,18,17,12,8.20
2015,01,18,17,13,8.20
2015,01,18,17,14,8.30
2015,01,18,17,15,8.40
2015,01,18,17,16,8.40
2015,01,18,17,17,8.40
2015,01,18,17,18,8.40
2015,01,18,17,19,8.40
2015,01,18,17,20,8.30
2015,01,18,17,21,8.30
2015,01,18,17,22,8.30
2015,01,18,17,23,8.20
2015,01,18,17,24,8.30
2015,01,18,17,25,8.30
2015,01,18,17,26,8.30
2015,01,18,17,27,8.30
2015,01,18,17,28,8.30
2015,01,18,17,29,8.30
2015,01,18,17,30,8.30
2015,01,18,17,31,8.40
2015,01,18,17,32,8.40
2015,01,18,17,33,8.50
2015,01,18,17,34,8.50
2015,01,18,17,35,8.60
2015,01,18,17,36,8.60
2015,01,18,17,37,8.60
2015,01,18,17,38,8.60
2015,01,18,17,39,8.60
2015,01,18,17,40,8.60
2015,01,18,17,41,8.60
2015,01,18,17,42,8.60
2015,01,18,17,43,8.60
2015,01,18,17,44,8.60
2015,01,18,17,45,8.60
2015,01,18,17,46,8.60
2015,01,18,17,47,8.60
2015,01,18,17,48,8.60
2015,01,18,17,49,8.60
2015,01,18,17,50,8.60
2015,01,18,17,51,8.60
2015,01,18,17,52,8.60
2015,01,18,17,53,8.60
2015,01,18,17,54,8.50
2015,01,18,17,55,8.50